STARLINK-2186

decayed
NORAD ID: 48561 Int'l Des: 2021-041 Owner: SPXS Country: US Constellation: starlink
LEOCIRCULAR
グループ

STARLINK-2186について

説明を読み込み中...

高度履歴

Altitude vs Time

uPlot chart will show altitude changes over time

軌道要素

1 48561U 21041J 24177.78920200 .12817566 12017-4 47651-2 0 9997
2 48561 53.0447 328.8050 0009762 309.3030 191.6421 16.23630941172916
Epoch: Jun 25, 2024 • Age: 10745 hours

現在のステータス

Position data unavailable
打ち上げ日 May 15, 2021
運用期間 4.3 years
落下予定日 Jun 26, 2024
タイプ internet

技術仕様

分類 Payload
質量 260.00 kg
乾燥質量 248.00 kg
総質量 260.00 kg
長さ 0.20 m
直径 2.80 m
スパン 9.00 m
形状 Box + pan
製造者 SPXS
バスタイプ Starlink
フェーズステータス Unknown Transfer Status
所有者/国 SPXS/US

大規模コンステレーション

Loading constellations...